Lid_Strength_Index
3 3 4 4 4 4 7 10 12 7 6 9 13 14 11 9 10 9 10 10 11 12 12 13 13 13 12 9 10 13 12 14 16 13 10 9 11 13 14 18 19 17 18 17
2 3 4 4 4 4 8 12 12 8 7 12 13 11 10 9 10 10 11 12 11 12 13 15 12 12 10 9 10 11 10 15 18 16 14 11 13 12 12 13 14 17 19 17
2 3 4 4 4 4 9 11 13 12 11 11 12 12 11 11 8 9 10 12 11 12 13 12 14 13 11 10 10 6 9 14 15 17 15 14 15 13 12 13 19 16 16 14
2 3 3 4 4 4 8 10 12 13 15 13 12 12 10 11 11 10 10 12 12 13 16 14 14 14 13 12 7 9 12 14 14 13 12 12 12 13 12 14 14 16 14 13
2 3 4 4 4 5 10 12 12 11 12 11 12 10 11 11 10 11 12 12 12 12 15 14 15 14 15 14 12 12 12 15 14 15 12 12 13 12 12 12 13 13 13 14
2 3 4 4 3 5 11 9 9 10 10 10 11 10 9 10 10 10 10 11 12 13 12 11 12 12 13 13 12 14 14 14 16 16 14 13 16 13 13 12 11 12 15 12
3 3 4 4 4 5 8 9 9 10 12 11 11 10 10 11 11 11 11 10 11 10 8 10 12 13 12 11 11 12 15 15 13 17 15 19 13 10 10 11 10 10 10 10
2 2 4 5 4 4 8 7 8 10 12 11 11 10 10 10 9 11 10 9 8 8 11 13 15 15 13 11 10 12 11 11 15 17 19 14 13 11 11 13 13 10 11 10
2 2 3 4 4 4 6 7 7 8 11 12 9 11 11 12 12 11 11 9 8 9 12 14 17 18 14 16 13 10 11 10 13 15 19 20 13 9 8 9 15 11 11 11
2 2 2 4 4 4 5 6 6 8 10 9 9 11 11 10 11 13 12 11 10 9 14 16 17 17 11 16 16 16 16 13 16 16 17 15 10 9 9 16 16 11 11 10
2 2 2 3 4 3 5 7 5 7 9 9 8 8 10 10 10 13 11 12 11 11 15 15 15 16 14 14 13 15 14 15 15 15 17 18 9 10 15 13 11 10 11 11
3 2 2 3 3 3 4 7 5 5 9 9 8 7 7 8 8 10 10 12 12 10 14 15 15 16 15 16 19 10 15 12 14 14 16 11 10 11 10 10 11 11 11 11
2 2 2 2 2 2 3 6 5 6 9 9 9 10 7 7 7 7 12 11 9 9 10 13 15 16 14 19 15 12 10 10 12 13 12 13 11 10 9 10 10 10 10 10
2 2 1 1 2 2 3 6 5 6 8 12 12 7 9 6 6 7 8 9 9 10 11 13 13 14 12 12 10 11 10 11 12 13 13 11 10 10 10 10 10 10 10 11
2 1 1 1 2 3 3 5 5 5 8 12 12 10 8 7 7 8 8 9 11 11 13 15 14 13 12 12 11 12 10 11 12 13 12 13 12 11 10 11 11 10 11 12
1 0 1 2 2 3 5 8 5 5 6 10 14 10 9 7 7 8 9 10 10 11 12 12 13 11 9 11 13 10 9 9 10 12 11 11 11 10 10 11 11 11 11 12
1 1 1 2 2 5 7 8 6 4 5 10 13 13 9 8 8 9 9 9 10 10 10 13 13 11 8 10 13 10 10 10 11 11 10 12 11 12 11 11 11 11 11 11
1 1 2 2 3 5 7 5 4 5 8 9 13 13 11 7 10 10 8 9 9 8 9 9 11 8 8 12 10 10 10 11 11 10 10 11 11 11 11 11 12 12 13 13
2 2 3 5 6 8 7 3 3 5 8 12 12 14 14 8 9 8 8 8 10 8 10 10 9 11 12 10 11 13 12 11 11 10 10 11 12 12 12 12 13 13 13 13
2 4 7 9 7 4 3 6 9 9 10 11 13 11 12 10 10 10 10 8 10 12 10 8 10 11 9 9 11 11 10 10 9 12 13 12 12 12 13 13 13 13 13 13
6 7 8 5 3 5 8 10 11 12 14 12 11 12 12 9 12 11 10 10 10 13 11 11 12 12 10 10 11 10 11 11 11 10 11 11 11 12 13 13 13 13 13 13
5 5 4 4 7 9 11 12 11 13 14 11 12 11 11 10 9 13 12 13 12 14 9 12 13 11 10 11 11 11 11 11 11 10 10 11 11 11 12 13 13 13 13 13
5 6 8 9 10 14 13 16 13 12 10 10 10 12 10 10 11 13 12 13 15 8 12 13 11 11 11 11 11 10 11 11 11 11 10 10 11 11 11 12 13 12 12 12
8 9 13 12 13 13 12 13 11 8 8 9 8 10 11 11 13 12 13 11 10 13 15 14 13 12 11 11 10 11 11 11 11 11 11 11 11 12 12 11 11 13 13 12
9 9 13 12 11 10 10 9 9 8 7 8 10 10 11 12 12 12 13 13 14 13 18 17 13 11 11 11 10 11 11 11 11 11 11 11 12 12 12 12 11 12 12 13
8 9 11 10 10 10 10 9 9 7 8 9 9 11 12 12 13 13 13 15 17 18 17 15 12 12 11 11 10 10 10 11 11 11 11 11 12 12 12 11 11 11 12 13
9 11 9 10 10 9 9 8 8 7 9 11 12 13 13 10 13 14 15 17 16 15 13 13 12 12 11 11 10 10 10 11 11 11 11 11 11 11 12 13 12 11 11 12